Location: Unspecified
(0.0000°N, 0.0000°E)
Time: 13:55:49
(UTC+00:00)

deb Delta 98 - Visible Passes

Search period start: 23 February 2024 00:00
Search period end: 04 March 2024 00:00
Orbit: 1097 x 1400 km, 102.3° (Epoch: 22 February)

Date Brightness Start Highest point End Pass type
(mag) Time Alt. Az. Time Alt. Az. Time Alt. Az.
23 Feb ? 19:19:09 10° NNE 19:25:32 50° ESE 19:32:11 10° S visible
23 Feb ? 21:10:11 10° NW 21:13:48 15° WNW 21:17:29 10° WSW visible
24 Feb ? 19:16:10 10° NE 19:22:29 46° ESE 19:29:04 10° S visible
24 Feb ? 21:06:44 10° NW 21:10:44 17° WNW 21:14:51 10° WSW visible
25 Feb ? 19:13:11 10° NE 19:19:25 43° ESE 19:25:56 10° S visible
25 Feb ? 21:03:20 10° NNW 21:07:41 19° WNW 21:12:09 10° WSW visible
26 Feb ? 19:10:12 10° NE 19:16:21 40° ESE 19:22:47 10° S visible
26 Feb ? 20:59:57 10° NNW 21:04:37 20° WNW 21:09:25 10° WSW visible
27 Feb ? 19:07:16 10° NE 19:13:19 37° ESE 19:19:38 10° S visible
27 Feb ? 20:56:37 10° NNW 21:01:33 22° WNW 21:06:39 10° WSW visible
28 Feb ? 19:04:19 10° NE 19:10:15 34° ESE 19:16:28 10° S visible
28 Feb ? 20:53:21 10° NNW 20:58:29 24° WNW 21:03:51 10° SW visible
29 Feb ? 19:01:23 10° NE 19:07:12 31° ESE 19:13:18 10° SSE visible
29 Feb ? 20:50:15 11° NNW 20:55:25 26° WNW 21:01:01 10° SW visible
01 Mar ? 18:58:28 10° NE 19:04:09 29° ESE 19:10:06 10° SSE visible
01 Mar ? 20:47:09 11° NNW 20:52:21 29° WNW 20:58:11 10° SW visible
02 Mar ? 18:55:34 10° NE 19:01:06 27° ESE 19:06:53 10° SSE visible
02 Mar ? 20:44:02 12° NNW 20:49:16 31° WNW 20:55:19 10° SW visible
03 Mar ? 18:52:41 10° NE 18:58:04 25° ESE 19:03:39 10° SSE visible
03 Mar ? 20:40:55 13° NNW 20:46:12 34° WNW 20:52:26 10° SW visible
